Location: Unspecified
(31.4358°N, 0.0000°E)
Time: 18:06:19
(UTC+00:00)

CZ-4 DEB - Visible Passes

Search period start: 04 April 2026 00:00
Search period end: 14 April 2026 00:00
Orbit: 713 x 888 km, 98.3° (Epoch: 29 March)

Date Brightness Start Highest point End Pass type
(mag) Time Alt. Az. Time Alt. Az. Time Alt. Az.
4 Apr ? 03:46:02 10° SE 03:50:24 37° ENE 03:54:49 10° N visible
5 Apr ? 03:20:46 10° ESE 03:24:10 20° ENE 03:27:35 10° NNE visible
5 Apr ? 04:59:22 10° SSW 05:03:39 32° W 05:07:57 10° NW visible
6 Apr ? 04:32:24 10° S 04:37:08 65° WSW 04:41:56 10° NNW visible
7 Apr ? 04:06:01 10° SSE 04:10:43 64° ENE 04:15:30 10° N visible
8 Apr ? 03:40:10 10° SE 03:44:24 32° ENE 03:48:41 10° N visible
9 Apr ? 03:15:05 10° ESE 03:18:10 17° ENE 03:21:18 10° NNE visible
9 Apr ? 04:53:09 10° SSW 04:57:34 37° W 05:02:03 10° NNW visible
10 Apr ? 04:26:19 10° S 04:31:04 75° WSW 04:35:56 10° NNW visible
11 Apr ? 04:00:01 10° SSE 04:04:40 55° ENE 04:09:27 10° N visible
12 Apr ? 03:34:17 10° SE 03:38:22 29° ENE 03:42:33 10° NNE visible
13 Apr ? 03:09:25 10° ESE 03:12:11 15° ENE 03:15:00 10° NNE visible
13 Apr ? 04:46:57 10° S 04:51:29 43° W 04:56:09 10° NNW visible
